Location: Newark
(41.0400°S, 62.7845°W)
Time: 00:30:55
(UTC+00:00)

SR - All Passes

Search period start: 28 November 2021 00:00
Search period end: 08 December 2021 00:00
Orbit: 583 x 871 km, 66.7° (Epoch: 27 November)

Date Brightness Start Highest point End Pass type
(mag) Time Alt. Az. Time Alt. Az. Time Alt. Az.
28 Nov - 00:42:51 10° S 00:47:46 26° SE 00:52:30 10° ENE visible
28 Nov - 02:24:31 10° SW 02:30:19 59° WNW 02:35:45 10° NNE visible
28 Nov - 15:14:40 10° NE 15:17:24 14° ENE 15:20:12 10° ESE daylight
28 Nov - 16:53:12 10° NNW 16:58:37 82° WSW 17:04:28 10° SSE daylight
28 Nov - 18:38:05 10° W 18:41:42 17° SW 18:45:26 10° S daylight
28 Nov - 23:53:41 10° S 23:57:18 16° SE 00:00:50 10° ESE visible
29 Nov - 01:34:33 10° SSW 01:40:29 75° ESE 01:46:04 10° NE visible
29 Nov - 03:18:21 10° WSW 03:21:50 16° WNW 03:25:11 10° NW visible
29 Nov - 16:03:37 10° N 16:08:48 53° ENE 16:14:26 10° SE daylight
29 Nov - 17:46:33 10° WNW 17:51:15 28° SW 17:56:13 10° S daylight
29 Nov - 23:05:50 10° SSE 23:06:37 10° SSE 23:07:24 10° SE daylight
30 Nov - 00:44:50 10° SSW 00:50:25 41° SE 00:55:44 10° ENE visible
30 Nov - 02:27:16 10° SW 02:32:24 33° WNW 02:37:15 10° N visible
30 Nov - 15:14:48 10° NNE 15:19:14 27° ENE 15:23:57 10° SE daylight
30 Nov - 16:55:45 10° NW 17:01:01 47° SW 17:06:41 10° SSE daylight
30 Nov - 18:42:54 10° SW 18:44:42 11° SSW 18:46:30 10° SSW daylight
30 Nov - 23:55:21 10° S 00:00:08 25° SE 00:04:45 10° E visible
01 Dec - 01:36:56 10° SW 01:42:45 63° WNW 01:48:12 10° NNE visible
01 Dec - 14:27:28 10° NE 14:29:52 13° E 14:32:20 10° ESE daylight
01 Dec - 16:05:35 10° NNW 16:11:01 87° WSW 16:16:54 10° SSE daylight
01 Dec - 17:50:15 10° W 17:54:03 18° SW 17:57:59 10° S daylight
01 Dec - 23:06:14 10° S 23:09:39 15° SE 23:12:59 10° ESE daylight
02 Dec - 00:46:59 10° SSW 00:52:54 70° ESE 00:58:26 10° NE visible
02 Dec - 02:30:35 10° WSW 02:34:18 18° WNW 02:37:52 10° NW visible
02 Dec - 15:16:05 10° N 15:21:15 49° ENE 15:26:50 10° SE daylight
02 Dec - 16:58:48 10° WNW 17:03:37 29° SW 17:08:42 10° SSE daylight
02 Dec - 23:57:18 10° SSW 00:02:49 39° SE 00:08:02 10° ENE visible
03 Dec - 01:39:37 10° SW 01:44:51 35° WNW 01:49:46 10° N visible
03 Dec - 14:27:22 10° NNE 14:31:42 25° ENE 14:36:17 10° SE daylight
03 Dec - 16:08:04 10° NW 16:13:25 51° SW 16:19:08 10° SSE daylight
03 Dec - 17:54:52 10° SW 17:57:00 12° SSW 17:59:11 10° S daylight
03 Dec - 23:07:50 10° S 23:12:30 23° SE 23:16:59 10° E daylight
04 Dec - 00:49:20 10° SW 00:55:11 68° WNW 01:00:38 10° NNE visible
04 Dec - 13:40:20 10° ENE 13:42:21 12° E 13:44:23 10° E daylight
04 Dec - 15:17:59 10° NNW 15:23:26 88° ENE 15:29:19 10° SSE daylight
04 Dec - 17:02:25 10° W 17:06:24 19° SW 17:10:30 10° S daylight
04 Dec - 22:18:47 10° S 22:21:59 15° SE 22:25:07 10° ESE daylight
04 Dec - 23:59:25 10° SSW 00:05:18 65° ESE 00:10:48 10° NE visible
05 Dec - 01:42:50 10° WSW 01:46:46 19° WNW 01:50:31 10° NNW visible
05 Dec - 14:28:32 10° N 14:33:41 46° ENE 14:39:13 10° SE daylight
05 Dec - 16:11:04 10° WNW 16:15:59 31° SW 16:21:10 10° SSE daylight
05 Dec - 23:09:45 10° SSW 23:15:11 36° SE 23:20:20 10° ENE daylight
06 Dec - 00:51:59 10° SW 00:57:17 37° WNW 01:02:16 10° N visible
06 Dec - 13:39:56 10° NNE 13:44:09 23° ENE 13:48:36 10° SE daylight
06 Dec - 15:20:25 10° NW 15:25:48 54° SW 15:31:35 10° SSE daylight
06 Dec - 17:06:52 10° WSW 17:09:20 13° SW 17:11:49 10° S daylight
06 Dec - 22:20:20 10° S 22:24:52 22° SE 22:29:12 10° E daylight
07 Dec - 00:01:45 10° SSW 00:07:36 73° WNW 00:13:03 10° NNE visible
07 Dec - 12:53:21 10° ENE 12:54:49 11° E 12:56:18 10° E daylight
07 Dec - 14:30:23 10° NNW 14:35:51 82° ENE 14:41:45 10° SSE daylight
07 Dec - 16:14:37 10° W 16:18:44 20° SW 16:23:00 10° S daylight
07 Dec - 21:31:21 10° S 21:34:19 14° SE 21:37:12 10° ESE daylight
07 Dec - 23:11:52 10° SSW 23:17:42 61° ESE 23:23:09 10° NE daylight
